Location: Fours
(44.3167°N, 6.7000°E)
Time: 03:25:56
(UTC+00:00)

Cosmos 2098 - Pass Details

Date: 31 May 2022
Orbit: 387 x 1576 km, 82.9° (Epoch: 04 July)

Event Time Altitude Azimuth Distance (km) Brightness Sun altitude
Rises 02:34:26 0° 353° (N) 2,311 8.6 -11.6°
Reaches altitude 10° 02:36:25 10° 354° (N) 1,428 7.5 -11.4°
Maximum altitude 02:39:23 82° 82° (E) 406 4.2 -11.0°
Drops below altitude 10° 02:42:33 10° 171° (S) 1,518 6.7 -10.6°
Enters shadow 02:43:54 - 171° (S) 2,111 7.5 -10.5°
